User: anonymous   Login
Location: American Canyon
(38.1966°N, 122.1514°W)
Time: 03:02:58
(UTC+00:00)
Language:

Cosmos 1992 Rocket - Orbit

View from above orbital plane
View from above orbital plane
View from above satellite
View from above satellite

Ground track
Ground track

The orbit data is extracted from the following two-line orbital elements,

1 19770U 89005B   21015.54130973  .00000054  00000-0  26146-4 0  9999
2 19770  74.0446 157.7490 0006055 272.8658 155.9665 14.38859892674458
Epoch (UTC): 15 January 2021 12:59:29
Eccentricity: 0.0006055
inclination: 74.0446°
perigee height: 758 km
apogee height: 766 km
right ascension of ascending node: 157.7490°
argument of perigee: 272.8658°
revolutions per day: 14.38859892
mean anomaly at epoch: 155.9665°
orbit number at epoch: 67445

The dashed part of the orbit path shows where the satellite is in the earth's shadow,  

DLR